User: anonymous   Login
Location: Unspecified
(0.0000°N, 0.0000°E)
Time: 13:35:06
(UTC+00:00)
Language:

AIST 1 - Orbit

View from above orbital plane
View from above orbital plane
View from above satellite
View from above satellite

Ground track
Ground track

The orbit data is extracted from the following two-line orbital elements,

1 39492U 13078C   17146.59587959 +.00000218 +00000-0 +21222-4 0  9996
2 39492 082.4202 203.0708 0021630 105.4388 254.9221 14.87582734182733
Epoch (UTC): 26 May 2017 14:18:03
Eccentricity: 0.0021630
inclination: 82.4202°
perigee height: 590 km
apogee height: 620 km
right ascension of ascending node: 203.0708°
argument of perigee: 105.4388°
revolutions per day: 14.87582734
mean anomaly at epoch: 254.9221°
orbit number at epoch: 18273

The dashed part of the orbit path shows where the satellite is in the earth's shadow,  

DLR